Regional Weather Roundup
Issued by NWS Albany, NY

Home | Current Version | Previous Version | Graphics & Text | Print | Product List | Glossary Off
Versions: 1 2 3 4 5 6 7 8 9 10 11 12 13 14 15 16 17 18 19 20 21 22 23 24 25 26 27 28 29 30 31 32 33 34 35 36 37 38 39 40 41 42 43 44 45 46 47 48 49 50

000
ASUS41 KALY 280810
RWRALY

NEW YORK STATE HOURLY WEATHER ROUNDUP
NATIONAL WEATHER SERVICE ALBANY NY
400 AM EDT SAT MAR 28 2015

NOTE: "FAIR" INDICATES FEW OR NO CLOUDS BELOW 12,000 FEET WITH NO
SIGNIFICANT WEATHER AND/OR NO OBSTRUCTIONS TO VISIBILITY.

NYZ032-033-038>043-046>054-057>066-NYZ062>081-280900-
EAST


CITY           SKY/WX    TMP DP  RH WIND       PRES   REMARKS
ALBANY         FLURRIES  30  22  72 NW13      29.83F WCI  20
GLENS FALLS    CLOUDY    31  26  82 N7        29.83F WCI  24
POUGHKEEPSIE   CLOUDY    34  21  59 N9        29.78F WCI  27
NEWBURGH       CLOUDY    32  25  74 VRB5      29.78F WCI  27
MONTGOMERY     CLOUDY    33  20  58 NW3       29.77F
WHITE PLAINS   MOCLDY    34  21  59 NW17G23   29.73F WCI  23
ISLIP          CLOUDY    37  25  61 N10       29.71F WCI  30
NEW YORK CITY  CLOUDY    37  22  54 N12G21    29.76S WCI  29
CENTRAL PARK   CLOUDY    37  22  54 VRB6G18   29.78F WCI  32
$$

NYZ005>009-017-018-044>046-055-056-280900-
CENTRAL


CITY           SKY/WX    TMP DP  RH WIND       PRES   REMARKS
FULTON         CLOUDY    21   8  57 N9        29.97S WCI  11
SYRACUSE       CLOUDY    21  13  71 NW13      29.96S WCI   9
ROME           CLOUDY    22  14  71 N10       29.93F WCI  11
ELMIRA         FLURRIES  22  17  81 N10       29.90S WCI  11
BINGHAMTON     CLOUDY    21  15  78 N12       29.81F WCI   9
MONTICELLO     CLEAR     25  18  74 NW14G20   29.77S WCI  13
$$

NYZ026>034-041>043-280900-
NORTH


CITY           SKY/WX    TMP DP  RH WIND       PRES   REMARKS
WATERTOWN      CLOUDY    19   4  51 N15       30.00R WCI   5
FORT DRUM      NOT AVBL
MASSENA        CLOUDY    19   4  51 N10       30.00R WCI   7
SARANAC LAKE   LGT SNOW  17  13  84 VRB5      29.82F FOG     WCI  10
PLATTSBURGH    CLOUDY    24  18  77 N13       29.93R WCI  12
$$

NYZ001>004-010>016-019>021-280900-
WEST


CITY           SKY/WX    TMP DP  RH WIND       PRES   REMARKS
NIAGARA FALLS  FLURRIES  19  12  74 NW13      30.02S WCI   6
BUFFALO        LGT SNOW  19  14  81 NW10      30.01S VSB 1   WCI   7
DUNKIRK        CLOUDY    16  11  80 W6        30.04S WCI   7
JAMESTOWN      CLOUDY    12   9  85 N12       29.93S WCI  -2
WELLSVILLE     FLURRIES  15  10  80 NW7       29.86S WCI   5
ROCHESTER      CLOUDY    22  12  65 N14       29.99S WCI   9
PENN YAN       CLOUDY    20  14  77 N8        29.94S WCI  10
$$

             KEY
       WCI = WIND CHILL INDEX
       VSB = VISIBILITY
       HX  = HEAT INDEX
$$



USA.gov is the U.S. government's official web portal to all federal, state and local government web resources and services.